This is the latest recevied weather packets stored in our database for station/object VE3EP-1. If no packets are shown the sender has not sent any weather packets the latest 10 day(s).
| Time | Temp. | Humidity | Pressure | Rain* | Wind** | Luminosity | Snow |
|---|---|---|---|---|---|---|---|
| 1777841528 | 9.44° C | 50% | 1011.7 hPa | 0 mm | - | - | - |
| 1777840928 | 8.89° C | 51% | 1011.7 hPa | 0 mm | - | - | - |
| 1777840329 | 8.33° C | 55% | 1011.8 hPa | 0 mm | - | - | - |
| 1777839730 | 8.89° C | 57% | 1012.1 hPa | 0 mm | - | - | - |
| 1777839129 | 10° C | 52% | 1012.2 hPa | 0 mm | - | - | - |
| 1777838528 | 8.89° C | 54% | 1012.3 hPa | 0 mm | - | - | - |
| 1777837928 | 8.33° C | 55% | 1012.6 hPa | 0 mm | - | - | - |
| 1777837328 | 8.33° C | 58% | 1012.7 hPa | 0 mm | - | - | - |
| 1777836728 | 7.78° C | 59% | 1012.8 hPa | 0 mm | - | - | - |
| 1777836128 | 7.78° C | 60% | 1013.1 hPa | 0 mm | - | - | - |
| 1777835528 | 8.33° C | 59% | 1013.1 hPa | 0 mm | - | - | - |
| 1777834328 | 8.33° C | 60% | 1013.7 hPa | 0 mm | - | - | - |
| 1777833731 | 7.78° C | 61% | 1013.7 hPa | 0 mm | - | - | - |
| 1777833128 | 8.33° C | 60% | 1013.7 hPa | 0 mm | - | - | - |
| 1777832528 | 8.89° C | 56% | 1013.9 hPa | 0 mm | - | - | - |
| 1777831928 | 8.89° C | 58% | 1013.8 hPa | 0 mm | - | - | - |
| 1777830729 | 9.44° C | 56% | 1013.8 hPa | 0 mm | - | - | - |
| 1777830129 | 8.89° C | 56% | 1014 hPa | 0 mm | - | - | - |
| 1777829528 | 8.89° C | 61% | 1014.1 hPa | 0 mm | - | - | - |
| 1777828928 | 8.33° C | 59% | 1014 hPa | 0 mm | - | - | - |
| 1777828328 | 8.33° C | 57% | 1014.4 hPa | 0 mm | - | - | - |
| 1777827728 | 7.78° C | 59% | 1014.6 hPa | 0 mm | - | - | - |
| 1777825928 | 7.78° C | 55% | 1014.9 hPa | 0 mm | - | - | - |
| 1777824729 | 7.22° C | 54% | 1015.1 hPa | 0 mm | - | - | - |
| 1777824128 | 7.22° C | 58% | 1015.1 hPa | 0 mm | - | - | - |
* Rain latest hour (hover to see other rain measurements)
** Current wind speed in m/s (hover to see current wind gust speed)